Time,TemperatureF,DewpointF,PressureIn,WindDirection,WindDirectionDegrees,WindSpeedMPH,WindSpeedGustMPH,Humidity,HourlyPrecipIn,Conditions,Clouds,dailyrainin,SolarRadiationWatts/m^2,SoftwareType,DateUTC
2013-07-28 00:43:00,52.0,49.0,-100.00,WNW,282,4.0,12.0,90,0.02,,,0.34,0.000000,,2013-07-28 06:43:00,
2013-07-28 00:53:00,52.0,49.0,-100.00,WNW,282,4.0,12.0,90,0.02,,,0.34,0.000000,,2013-07-28 06:53:00,
2013-07-28 01:43:00,53.0,48.0,-100.00,West,262,6.0,12.0,84,0.01,,,0.35,0.000000,,2013-07-28 07:43:00,
2013-07-28 01:53:00,53.0,48.0,-100.00,West,262,6.0,12.0,84,0.01,,,0.35,0.000000,,2013-07-28 07:53:00,
2013-07-28 02:02:00,53.0,48.0,-100.00,West,262,6.0,12.0,84,0.01,,,0.35,0.000000,,2013-07-28 08:02:00,
2013-07-28 02:12:00,53.0,48.0,-100.00,West,262,6.0,12.0,84,0.01,,,0.35,0.000000,,2013-07-28 08:12:00,
2013-07-28 02:43:00,52.0,48.0,-100.00,WSW,248,5.0,9.0,85,0.00,,,0.35,0.000000,,2013-07-28 08:43:00,
2013-07-28 02:53:00,52.0,48.0,-100.00,WSW,248,5.0,9.0,85,0.00,,,0.35,0.000000,,2013-07-28 08:53:00,
2013-07-28 03:02:00,52.0,48.0,-100.00,WSW,248,5.0,9.0,85,0.00,,,0.35,0.000000,,2013-07-28 09:02:00,
2013-07-28 03:12:00,52.0,48.0,-100.00,WSW,248,5.0,9.0,85,0.00,,,0.35,0.000000,,2013-07-28 09:12:00,
2013-07-28 03:43:00,52.0,48.0,-100.00,West,272,4.0,7.0,86,0.00,,,0.35,0.000000,,2013-07-28 09:43:00,
2013-07-28 03:53:00,52.0,48.0,-100.00,West,272,4.0,7.0,86,0.00,,,0.35,0.000000,,2013-07-28 09:53:00,
2013-07-28 04:02:00,52.0,48.0,-100.00,West,272,4.0,7.0,86,0.00,,,0.35,0.000000,,2013-07-28 10:02:00,
2013-07-28 04:12:00,52.0,48.0,-100.00,West,272,4.0,7.0,86,0.00,,,0.35,0.000000,,2013-07-28 10:12:00,
2013-07-28 04:42:00,52.0,47.0,-100.00,WNW,284,3.0,6.0,84,0.00,,,0.35,0.000000,,2013-07-28 10:42:00,
2013-07-28 04:53:00,52.0,47.0,-100.00,WNW,284,3.0,6.0,84,0.00,,,0.35,0.000000,,2013-07-28 10:53:00,
2013-07-28 05:02:00,52.0,47.0,-100.00,WNW,284,3.0,6.0,84,0.00,,,0.35,0.000000,,2013-07-28 11:02:00,
2013-07-28 05:12:00,52.0,47.0,-100.00,WNW,284,3.0,6.0,84,0.00,,,0.35,0.000000,,2013-07-28 11:12:00,
2013-07-28 05:43:00,51.0,45.0,-100.00,WNW,283,5.0,6.0,81,0.00,,,0.35,0.000000,,2013-07-28 11:43:00,
2013-07-28 05:54:00,51.0,45.0,-100.00,WNW,283,5.0,6.0,81,0.00,,,0.35,0.000000,,2013-07-28 11:54:00,
2013-07-28 06:02:00,51.0,45.0,-100.00,WNW,283,5.0,6.0,81,0.00,,,0.35,0.000000,,2013-07-28 12:02:00,
2013-07-28 06:12:00,51.0,45.0,-100.00,WNW,283,5.0,6.0,81,0.00,,,0.35,0.000000,,2013-07-28 12:12:00,
2013-07-28 06:43:00,51.0,44.0,-100.00,West,278,5.0,6.0,78,0.00,,,0.35,1.000000,,2013-07-28 12:43:00,
2013-07-28 06:53:00,51.0,44.0,-100.00,West,278,5.0,6.0,78,0.00,,,0.35,1.000000,,2013-07-28 12:53:00,
2013-07-28 07:02:00,51.0,44.0,-100.00,West,278,5.0,6.0,78,0.00,,,0.35,1.000000,,2013-07-28 13:02:00,
2013-07-28 07:12:00,51.0,44.0,-100.00,West,278,5.0,6.0,78,0.00,,,0.35,1.000000,,2013-07-28 13:12:00,
2013-07-28 07:43:00,53.0,47.0,-100.00,West,280,3.0,6.0,81,0.00,,,0.35,46.000000,,2013-07-28 13:43:00,
2013-07-28 07:53:00,53.0,47.0,-100.00,West,280,3.0,6.0,81,0.00,,,0.35,46.000000,,2013-07-28 13:53:00,
2013-07-28 08:02:00,53.0,47.0,-100.00,West,280,3.0,6.0,81,0.00,,,0.35,46.000000,,2013-07-28 14:02:00,
2013-07-28 08:12:00,53.0,47.0,-100.00,West,280,3.0,6.0,81,0.00,,,0.35,46.000000,,2013-07-28 14:12:00,
2013-07-28 08:43:00,58.0,49.0,-100.00,WNW,283,3.0,5.0,72,0.00,,,0.35,165.000000,,2013-07-28 14:43:00,
2013-07-28 08:53:00,58.0,49.0,-100.00,WNW,283,3.0,5.0,72,0.00,,,0.35,165.000000,,2013-07-28 14:53:00,
2013-07-28 09:02:00,58.0,49.0,-100.00,WNW,283,3.0,5.0,72,0.00,,,0.35,165.000000,,2013-07-28 15:02:00,
2013-07-28 09:13:00,58.0,49.0,-100.00,WNW,283,3.0,5.0,72,0.00,,,0.35,165.000000,,2013-07-28 15:13:00,
2013-07-28 09:43:00,66.0,48.0,-100.00,East,95,5.0,8.0,53,0.00,,,0.35,454.000000,,2013-07-28 15:43:00,
2013-07-28 09:53:00,66.0,48.0,-100.00,East,95,5.0,8.0,53,0.00,,,0.35,454.000000,,2013-07-28 15:53:00,
2013-07-28 10:02:00,66.0,48.0,-100.00,East,95,5.0,8.0,53,0.00,,,0.35,454.000000,,2013-07-28 16:02:00,
2013-07-28 10:12:00,66.0,48.0,-100.00,East,95,5.0,8.0,53,0.00,,,0.35,454.000000,,2013-07-28 16:12:00,
2013-07-28 10:43:00,66.0,46.0,-100.00,ESE,111,8.0,11.0,48,0.00,,,-99.99,698.000000,,2013-07-28 16:43:00,
2013-07-28 10:52:00,66.0,46.0,-100.00,ESE,111,8.0,11.0,48,0.00,,,-99.99,698.000000,,2013-07-28 16:52:00,
2013-07-28 11:02:00,66.0,46.0,-100.00,ESE,111,8.0,11.0,48,0.00,,,-99.99,698.000000,,2013-07-28 17:02:00,
2013-07-28 11:12:00,66.0,46.0,-100.00,ESE,111,8.0,11.0,48,0.00,,,-99.99,698.000000,,2013-07-28 17:12:00,
2013-07-28 11:43:00,64.0,47.0,-100.00,ESE,118,10.0,15.0,54,0.00,,,0.35,740.000000,,2013-07-28 17:43:00,
2013-07-28 11:53:00,64.0,47.0,-100.00,ESE,118,10.0,15.0,54,0.00,,,0.35,740.000000,,2013-07-28 17:53:00,
2013-07-28 12:03:00,64.0,47.0,-100.00,ESE,118,10.0,15.0,54,0.00,,,0.35,740.000000,,2013-07-28 18:03:00,
2013-07-28 12:12:00,64.0,47.0,-100.00,ESE,118,10.0,15.0,54,0.00,,,0.35,740.000000,,2013-07-28 18:12:00,
2013-07-28 12:43:00,64.0,47.0,-100.00,ESE,122,8.0,14.0,53,0.00,,,0.35,561.000000,,2013-07-28 18:43:00,
2013-07-28 12:52:00,64.0,47.0,-100.00,ESE,122,8.0,14.0,53,0.00,,,0.35,561.000000,,2013-07-28 18:52:00,
2013-07-28 13:02:00,64.0,47.0,-100.00,ESE,122,8.0,14.0,53,0.00,,,0.35,561.000000,,2013-07-28 19:02:00,
2013-07-28 13:12:00,64.0,47.0,-100.00,ESE,122,8.0,14.0,53,0.00,,,0.35,561.000000,,2013-07-28 19:12:00,
2013-07-28 14:53:00,56.0,54.0,-100.00,NNW,329,3.0,7.0,92,-99.99,,,0.29,209.000000,,2013-07-28 20:53:00,
2013-07-28 15:02:00,56.0,54.0,-100.00,NNW,329,3.0,7.0,92,-99.99,,,0.29,209.000000,,2013-07-28 21:02:00,
2013-07-28 15:12:00,56.0,54.0,-100.00,NNW,329,3.0,7.0,92,-99.99,,,0.29,209.000000,,2013-07-28 21:12:00,
2013-07-28 15:44:00,57.0,54.0,-100.00,WSW,238,1.0,6.0,90,0.08,,,0.30,166.000000,,2013-07-28 21:44:00,
2013-07-28 15:52:00,57.0,54.0,-100.00,WSW,238,1.0,6.0,90,0.08,,,0.30,166.000000,,2013-07-28 21:52:00,
2013-07-28 16:02:00,57.0,54.0,-100.00,WSW,238,1.0,6.0,90,0.08,,,0.30,166.000000,,2013-07-28 22:02:00,
2013-07-28 16:12:00,57.0,54.0,-100.00,WSW,238,1.0,6.0,90,0.08,,,0.30,166.000000,,2013-07-28 22:12:00,
2013-07-28 16:43:00,60.0,54.0,-100.00,ESE,107,6.0,9.0,80,0.00,,,0.30,333.000000,,2013-07-28 22:43:00,
2013-07-28 16:52:00,60.0,54.0,-100.00,ESE,107,6.0,9.0,80,0.00,,,0.30,333.000000,,2013-07-28 22:52:00,
2013-07-28 17:03:00,60.0,54.0,-100.00,ESE,107,6.0,9.0,80,0.00,,,0.30,333.000000,,2013-07-28 23:03:00,
2013-07-28 17:12:00,60.0,54.0,-100.00,ESE,107,6.0,9.0,80,0.00,,,0.30,333.000000,,2013-07-28 23:12:00,
2013-07-28 17:43:00,63.0,51.0,-100.00,NE,52,3.0,12.0,64,0.00,,,0.30,498.000000,,2013-07-28 23:43:00,
2013-07-28 17:53:00,63.0,51.0,-100.00,NE,52,3.0,12.0,64,0.00,,,0.30,498.000000,,2013-07-28 23:53:00,
2013-07-28 18:03:00,63.0,51.0,-100.00,NE,52,3.0,12.0,64,0.00,,,0.30,498.000000,,2013-07-29 00:03:00,
2013-07-28 18:12:00,63.0,51.0,-100.00,NE,52,3.0,12.0,64,0.00,,,0.30,498.000000,,2013-07-29 00:12:00,
2013-07-28 18:43:00,64.0,52.0,-100.00,WSW,248,1.0,3.0,64,0.00,,,-99.99,313.000000,,2013-07-29 00:43:00,
2013-07-28 18:52:00,64.0,52.0,-100.00,WSW,248,1.0,3.0,64,0.00,,,-99.99,313.000000,,2013-07-29 00:52:00,
2013-07-28 19:02:00,64.0,52.0,-100.00,WSW,248,1.0,3.0,64,0.00,,,-99.99,313.000000,,2013-07-29 01:02:00,
2013-07-28 19:13:00,64.0,52.0,-100.00,WSW,248,1.0,3.0,64,0.00,,,-99.99,313.000000,,2013-07-29 01:13:00,
2013-07-28 19:47:00,67.0,52.0,-100.00,NNW,336,2.0,6.0,58,0.00,,,0.30,344.000000,,2013-07-29 01:47:00,
2013-07-28 20:00:00,67.0,52.0,-100.00,NNW,336,2.0,6.0,58,0.00,,,0.30,344.000000,,2013-07-29 02:00:00,
2013-07-28 20:14:00,67.0,52.0,-100.00,NNW,336,2.0,6.0,58,0.00,,,0.30,344.000000,,2013-07-29 02:14:00,
2013-07-28 20:15:00,59.0,50.0,-100.00,West,279,7.0,16.0,71,0.01,,,0.31,74.000000,,2013-07-29 02:15:00,
2013-07-28 20:58:00,59.0,50.0,-100.00,West,279,7.0,16.0,71,0.01,,,0.31,74.000000,,2013-07-29 02:58:00,
2013-07-28 21:03:00,59.0,50.0,-100.00,West,279,7.0,16.0,71,0.01,,,0.31,74.000000,,2013-07-29 03:03:00,
2013-07-28 21:58:00,55.0,48.0,-100.00,South,183,3.0,18.0,78,0.00,,,0.28,10.000000,,2013-07-29 03:58:00,
2013-07-28 22:02:00,55.0,48.0,-100.00,South,183,3.0,18.0,78,0.00,,,0.28,10.000000,,2013-07-29 04:02:00,
2013-07-28 22:12:00,55.0,48.0,-100.00,South,183,3.0,18.0,78,0.00,,,0.28,10.000000,,2013-07-29 04:12:00,
2013-07-28 22:43:00,55.0,49.0,-100.00,East,92,3.0,7.0,79,0.00,,,0.28,0.000000,,2013-07-29 04:43:00,
2013-07-28 22:53:00,55.0,49.0,-100.00,East,92,3.0,7.0,79,0.00,,,0.28,0.000000,,2013-07-29 04:53:00,
2013-07-28 23:02:00,55.0,49.0,-100.00,East,92,3.0,7.0,79,0.00,,,0.28,0.000000,,2013-07-29 05:02:00,
2013-07-28 23:12:00,55.0,49.0,-100.00,East,92,3.0,7.0,79,0.00,,,0.28,0.000000,,2013-07-29 05:12:00,
2013-07-28 23:43:00,52.0,49.0,-100.00,West,266,4.0,8.0,89,0.00,,,0.23,0.000000,,2013-07-29 05:43:00,
2013-07-28 23:53:00,52.0,49.0,-100.00,West,266,4.0,8.0,89,0.00,,,0.23,0.000000,,2013-07-29 05:53:00,